FW7194 Weather Reports


Display with metric or nautical units.
time (UTC)temp
F
wind
direction
speed
MPH
gust
MPH
rain 1hr
in
rain 24hr
in
rain mn
in
humidity
%
barometer
mb
20260506025548 62 195 1.0 1.0 0.00 0.00 0.00 83 1015.3
20260506025044 62 195 0.0 0.0 0.00 0.00 0.00 82 1015.6
20260506024541 62 195 0.0 0.0 0.00 0.00 0.00 82 1015.8
20260506024038 62 196 0.0 0.0 0.00 0.00 0.00 82 1015.6
20260506023534 62 195 0.0 0.0 0.00 0.00 0.00 81 1015.8
20260506023032 63 195 0.0 1.0 0.00 0.00 0.00 81 1015.7
20260506022529 63 195 0.0 0.0 0.00 0.00 0.00 80 1015.8
20260506022026 63 195 0.0 0.0 0.00 0.00 0.00 80 1015.7
20260506021524 63 195 0.0 1.0 0.00 0.00 0.00 80 1015.5
20260506021021 64 195 0.0 0.0 0.00 0.00 0.00 79 1015.6
20260506020518 64 195 0.0 0.0 0.00 0.00 0.00 79 1015.4
20260506020016 64 195 0.0 0.0 0.00 0.00 0.00 79 1015.6
20260506015513 64 194 0.0 0.0 0.00 0.00 0.00 78 1015.4
20260506015010 65 193 0.0 1.0 0.00 0.00 0.00 78 1015.1
20260506014507 65 193 0.0 1.0 0.00 0.00 0.00 77 1015.1
20260506014003 65 193 0.0 1.0 0.00 0.00 0.00 77 1015.2
20260506013501 65 193 0.0 1.0 0.00 0.00 0.00 76 1015.2
20260506012957 66 193 0.0 1.0 0.00 0.00 0.00 76 1015.1
20260506012453 66 202 1.0 1.0 0.00 0.00 0.00 75 1015.0
20260506011951 66 211 1.0 1.0 0.00 0.00 0.00 75 1015.2
20260506011448 66 213 0.0 0.0 0.00 0.00 0.00 74 1015.3
20260506010944 67 213 1.0 1.0 0.00 0.00 0.00 74 1015.5
20260506010444 67 189 0.0 1.0 0.00 0.00 0.00 73 1015.1
20260506005939 67 189 1.0 1.0 0.00 0.00 0.00 73 1015.0
20260506005437 68 187 1.0 1.0 0.00 0.00 0.00 72 1015.0
20260506004932 68 210 1.0 3.0 0.00 0.00 0.00 72 1015.1
20260506004431 68 202 1.0 3.0 0.00 0.00 0.00 71 1015.1
20260506003926 68 197 1.0 1.0 0.00 0.00 0.00 71 1015.2
20260506003423 68 199 1.0 2.0 0.00 0.00 0.00 71 1014.9
20260506002919 69 194 2.0 2.0 0.00 0.00 0.00 70 1015.0
20260506002415 69 194 2.0 3.0 0.00 0.00 0.00 70 1015.3
20260506001911 69 186 1.0 3.0 0.00 0.00 0.00 69 1015.1
20260506001408 69 193 3.0 5.0 0.00 0.00 0.00 69 1015.2
20260506000906 70 208 3.0 3.0 0.00 0.00 0.00 69 1015.1
20260506000403 70 199 2.0 5.0 0.00 0.00 0.00 68 1015.3
20260505235859 70 194 2.0 5.0 0.00 0.00 0.00 68 1015.1
20260505235358 70 194 5.0 11.0 0.00 0.00 0.00 68 1015.2
20260505234854 70 192 6.0 8.0 0.00 0.00 0.00 67 1014.8
20260505234352 70 199 5.0 6.0 0.00 0.00 0.00 67 1015.0
20260505233848 71 176 3.0 5.0 0.00 0.00 0.00 67 1014.9
20260505233346 71 204 4.0 9.0 0.00 0.00 0.00 66 1015.2
20260505232844 71 192 4.0 9.0 0.00 0.00 0.00 66 1015.1
20260505232342 71 220 7.0 11.0 0.00 0.00 0.00 66 1015.1
20260505231838 71 211 7.0 9.0 0.00 0.00 0.00 66 1014.9
20260505231335 71 188 6.0 7.0 0.00 0.00 0.00 65 1015.1
20260505230833 71 195 2.0 5.0 0.00 0.00 0.00 65 1015.1
20260505230330 71 199 5.0 9.0 0.00 0.00 0.00 65 1014.9
20260505225827 72 213 8.0 13.0 0.00 0.00 0.00 64 1015.1
20260505225325 72 218 2.0 18.0 0.00 0.00 0.00 64 1015.1
20260505224819 72 211 3.0 7.0 0.00 0.00 0.00 63 1015.0
20260505224317 72 184 3.0 8.0 0.00 0.00 0.00 63 1014.9
20260505223814 72 196 5.0 13.0 0.00 0.00 0.00 63 1015.1
20260505223311 72 171 4.0 9.0 0.00 0.00 0.00 63 1015.2
20260505222807 72 206 6.0 8.0 0.00 0.00 0.00 64 1015.2
20260505222305 72 220 4.0 15.0 0.00 0.00 0.00 63 1015.4
20260505221800 72 208 7.0 15.0 0.00 0.00 0.00 62 1015.0
20260505221257 72 212 5.0 8.0 0.00 0.00 0.00 62 1015.1
20260505220754 73 191 6.0 8.0 0.00 0.00 0.00 63 1015.2
20260505220251 73 204 4.0 10.0 0.00 0.00 0.00 63 1015.6
20260505215749 73 199 7.0 9.0 0.00 0.00 0.00 63 1015.2
20260505215247 73 210 6.0 10.0 0.00 0.00 0.00 63 1015.3
20260505214744 73 146 6.0 13.0 0.00 0.00 0.00 63 1015.2
20260505214242 73 205 7.0 13.0 0.00 0.00 0.00 63 1015.4
20260505213739 73 201 9.0 10.0 0.00 0.00 0.00 63 1015.5
20260505213236 73 179 10.0 11.0 0.00 0.00 0.00 62 1015.4
20260505212732 73 252 8.0 14.0 0.00 0.00 0.00 62 1015.4
20260505212229 73 206 3.0 8.0 0.00 0.00 0.00 61 1015.2
20260505211726 73 187 5.0 8.0 0.00 0.00 0.00 63 1015.4
20260505211224 73 204 3.0 7.0 0.00 0.00 0.00 62 1014.9
20260505210720 74 231 3.0 13.0 0.00 0.00 0.00 61 1015.4
20260505210217 74 232 5.0 13.0 0.00 0.00 0.00 61 1015.1
20260505205714 74 182 5.0 7.0 0.00 0.00 0.00 62 1015.3
20260505205212 74 194 6.0 7.0 0.00 0.00 0.00 61 1015.1
20260505204708 74 187 9.0 14.0 0.00 0.00 0.00 62 1015.2
20260505204207 74 147 3.0 6.0 0.00 0.00 0.00 62 1015.2
20260505203704 74 175 7.0 10.0 0.00 0.00 0.00 62 1015.3
20260505203200 74 184 5.0 10.0 0.00 0.00 0.00 62 1015.5
20260505202656 74 238 5.0 13.0 0.00 0.00 0.00 62 1015.2
20260505202152 74 163 3.0 10.0 0.00 0.00 0.00 62 1015.3
20260505201648 74 213 4.0 11.0 0.00 0.00 0.00 62 1015.3
20260505201147 74 203 6.0 13.0 0.00 0.00 0.00 61 1015.5
20260505200645 74 115 6.0 13.0 0.00 0.00 0.00 61 1015.6
20260505200141 74 222 6.0 13.0 0.00 0.00 0.00 60 1015.6
20260505195637 75 191 6.0 9.0 0.00 0.00 0.00 60 1015.7
20260505195135 75 133 6.0 11.0 0.00 0.00 0.00 60 1015.5
20260505194632 75 214 11.0 13.0 0.00 0.00 0.00 60 1016.0
20260505194128 75 135 5.0 8.0 0.00 0.00 0.00 60 1016.0
20260505193624 75 171 3.0 10.0 0.00 0.00 0.00 60 1016.3
20260505193121 75 210 6.0 9.0 0.00 0.00 0.00 60 1016.1
20260505192620 75 182 5.0 7.0 0.00 0.00 0.00 60 1016.4
20260505192117 75 187 7.0 10.0 0.00 0.00 0.00 60 1016.6
20260505191616 75 127 5.0 11.0 0.00 0.00 0.00 60 1016.5
20260505191113 75 216 9.0 15.0 0.00 0.00 0.00 59 1016.7
20260505190608 76 206 10.0 13.0 0.00 0.00 0.00 59 1016.5
20260505190104 75 176 3.0 9.0 0.00 0.00 0.00 60 1016.4
20260505185601 75 207 8.0 10.0 0.00 0.00 0.00 61 1016.6
20260505185057 75 235 6.0 10.0 0.00 0.00 0.00 61 1016.7
20260505184554 75 185 5.0 9.0 0.00 0.00 0.00 60 1016.5
20260505184050 75 187 9.0 14.0 0.00 0.00 0.00 60 1016.5
20260505183542 75 193 5.0 17.0 0.00 0.00 0.00 59 1016.3
20260505183039 75 209 3.0 10.0 0.00 0.00 0.00 60 1016.3
20260505182535 75 188 4.0 10.0 0.00 0.00 0.00 60 1016.3
20260505182032 75 194 11.0 18.0 0.00 0.00 0.00 60 1016.4
20260505181529 75 204 10.0 15.0 0.00 0.00 0.00 60 1016.4
20260505181026 75 208 6.0 13.0 0.00 0.00 0.00 60 1016.4
20260505180521 75 247 9.0 11.0 0.00 0.00 0.00 59 1016.5
20260505180020 76 201 6.0 10.0 0.00 0.00 0.00 59 1016.4
20260505175515 76 163 4.0 11.0 0.00 0.00 0.00 59 1016.2
20260505175012 76 90 1.0 10.0 0.00 0.00 0.00 60 1016.1
20260505174509 76 168 7.0 9.0 0.00 0.00 0.00 60 1016.3
20260505174005 76 204 5.0 10.0 0.00 0.00 0.00 59 1016.1
20260505173501 76 158 5.0 10.0 0.00 0.00 0.00 58 1016.6
20260505172958 76 168 10.0 14.0 0.00 0.00 0.00 58 1016.8
20260505172457 76 224 7.0 11.0 0.00 0.00 0.00 58 1016.7
20260505171957 76 213 5.0 13.0 0.00 0.00 0.00 58 1016.7
20260505171453 76 131 3.0 10.0 0.00 0.00 0.00 58 1016.5
20260505170950 76 176 3.0 9.0 0.00 0.00 0.00 58 1016.7
20260505170447 77 211 8.0 10.0 0.00 0.00 0.00 58 1016.6
20260505165942 77 227 7.0 10.0 0.00 0.00 0.00 58 1016.7
20260505165438 76 191 6.0 10.0 0.00 0.00 0.00 59 1016.9
20260505164933 76 205 7.0 10.0 0.00 0.00 0.00 60 1016.9
20260505164431 76 164 5.0 9.0 0.00 0.00 0.00 60 1017.1
20260505163928 75 139 2.0 7.0 0.00 0.00 0.00 60 1017.0
20260505163427 75 180 3.0 7.0 0.00 0.00 0.00 60 1017.0
20260505162926 75 206 5.0 11.0 0.00 0.00 0.00 59 1017.1
20260505162421 75 184 3.0 10.0 0.00 0.00 0.00 59 1017.1
20260505161918 76 219 7.0 11.0 0.00 0.00 0.00 61 1017.1
20260505161415 75 189 7.0 13.0 0.00 0.00 0.00 61 1017.2
20260505160913 75 167 9.0 10.0 0.00 0.00 0.00 61 1017.1
20260505160410 75 180 5.0 10.0 0.00 0.00 0.00 61 1017.0
20260505153349 77 206 4.0 11.0 0.00 0.00 0.00 58 1017.2
20260505152846 76 207 6.0 9.0 0.00 0.00 0.00 59 1017.2
20260505152338 76 163 4.0 11.0 0.00 0.00 0.00 57 1017.0
20260505151837 76 152 5.0 9.0 0.00 0.00 0.00 58 1017.2
20260505151334 76 203 8.0 14.0 0.00 0.00 0.00 58 1017.1
20260505150831 76 166 6.0 15.0 0.00 0.00 0.00 59 1017.1
20260505150329 76 175 3.0 9.0 0.00 0.00 0.00 59 1017.0
20260505140252 75 204 7.0 8.0 0.00 0.00 0.00 63 1016.8
20260505130217 70 185 5.0 9.0 0.00 0.00 0.00 72 1016.4
20260505124706 66 204 3.0 5.0 0.00 0.00 0.00 87 1016.4
20260505124203 65 150 1.0 2.0 0.00 0.00 0.00 94 1016.4
20260505123659 64 158 0.0 2.0 0.00 0.00 0.00 96 1016.5
20260505123156 63 154 1.0 1.0 0.00 0.00 0.00 98 1016.4
20260505122653 62 173 1.0 3.0 0.00 0.00 0.00 98 1016.6
20260505122150 61 152 1.0 1.0 0.00 0.00 0.00 98 1016.8
20260505121646 59 152 1.0 1.0 0.00 0.00 0.00 97 1016.5
20260505121143 58 168 1.0 2.0 0.00 0.00 0.00 96 1016.4
20260505120639 58 143 0.0 0.0 0.00 0.00 0.00 95 1016.4
20260505120136 57 143 0.0 0.0 0.00 0.00 0.00 95 1016.3
20260505115629 57 144 0.0 0.0 0.00 0.00 0.00 95 1016.3
20260505115127 57 150 0.0 0.0 0.00 0.00 0.00 95 1016.0
20260505114624 56 152 0.0 0.0 0.00 0.00 0.00 95 1016.1
20260505114120 56 155 0.0 0.0 0.00 0.00 0.00 95 1016.1
20260505113617 56 159 0.0 0.0 0.00 0.00 0.00 94 1016.3
20260505113114 55 166 0.0 0.0 0.00 0.00 0.00 94 1016.2
20260505112610 55 176 0.0 0.0 0.00 0.00 0.00 94 1016.0
20260505112108 55 185 0.0 0.0 0.00 0.00 0.00 94 1015.9
20260505111602 55 207 0.0 0.0 0.00 0.00 0.00 94 1015.8
20260505111058 55 207 0.0 0.0 0.00 0.00 0.00 94 1015.9
20260505110554 55 209 0.0 0.0 0.00 0.00 0.00 93 1015.8
20260505102021 55 211 0.0 0.0 0.00 0.00 0.00 93 1015.4
20260505101520 55 211 0.0 0.0 0.00 0.00 0.00 93 1015.3
20260505101015 55 211 0.0 0.0 0.00 0.00 0.00 93 1015.4
20260505100513 55 215 0.0 0.0 0.00 0.00 0.00 93 1015.4
20260505100010 55 217 0.0 0.0 0.00 0.00 0.00 93 1015.3
20260505095506 55 217 0.0 0.0 0.00 0.00 0.00 93 1015.3
20260505095002 55 201 0.0 0.0 0.00 0.00 0.00 93 1015.3
20260505094459 56 203 0.0 0.0 0.00 0.00 0.00 92 1015.4
20260505093955 56 203 0.0 0.0 0.00 0.00 0.00 92 1015.2
20260505093451 56 201 0.0 0.0 0.00 0.00 0.00 92 1015.4
20260505092949 56 203 0.0 0.0 0.00 0.00 0.00 92 1015.2
20260505092446 56 208 0.0 0.0 0.00 0.00 0.00 92 1015.2
20260505091944 56 210 0.0 0.0 0.00 0.00 0.00 92 1015.0
20260505091441 56 205 0.0 0.0 0.00 0.00 0.00 92 1015.1
20260505090939 56 206 0.0 0.0 0.00 0.00 0.00 92 1014.9
20260505090437 56 206 0.0 0.0 0.00 0.00 0.00 92 1014.8
20260505085934 56 205 0.0 0.0 0.00 0.00 0.00 92 1014.9
20260505085432 56 205 0.0 0.0 0.00 0.00 0.00 92 1014.9
20260505084930 56 205 0.0 0.0 0.00 0.00 0.00 92 1014.9
20260505084428 56 205 0.0 0.0 0.00 0.00 0.00 92 1014.6
20260505083926 56 205 0.0 0.0 0.00 0.00 0.00 92 1015.0
20260505083423 56 203 0.0 0.0 0.00 0.00 0.00 92 1014.9
20260505082919 56 203 0.0 0.0 0.00 0.00 0.00 91 1014.6
20260505082415 56 220 0.0 0.0 0.00 0.00 0.00 91 1014.6
20260505081912 57 220 0.0 0.0 0.00 0.00 0.00 91 1014.8
20260505081409 57 220 0.0 0.0 0.00 0.00 0.00 91 1014.8
20260505080905 57 205 0.0 0.0 0.00 0.00 0.00 91 1014.7
20260505080401 57 201 0.0 0.0 0.00 0.00 0.00 91 1014.6
20260505075857 57 201 0.0 0.0 0.00 0.00 0.00 91 1014.7
20260505075354 57 201 0.0 0.0 0.00 0.00 0.00 91 1014.4
20260505074851 57 201 0.0 0.0 0.00 0.00 0.00 91 1014.7
20260505074348 57 203 0.0 0.0 0.00 0.00 0.00 91 1014.6
20260505073846 57 203 0.0 0.0 0.00 0.00 0.00 91 1014.5
20260505073343 57 203 0.0 0.0 0.00 0.00 0.00 91 1014.3
20260505072840 57 203 0.0 0.0 0.00 0.00 0.00 91 1014.5
20260505072336 57 203 0.0 0.0 0.00 0.00 0.00 91 1014.5
20260505071832 57 197 0.0 0.0 0.00 0.00 0.00 91 1014.4
20260505071329 57 192 0.0 1.0 0.00 0.00 0.00 90 1014.5
20260505070827 57 203 0.0 0.0 0.00 0.00 0.00 90 1014.6
20260505070323 57 203 1.0 2.0 0.00 0.00 0.00 90 1014.6
20260505065819 57 201 0.0 0.0 0.00 0.00 0.00 90 1014.7
20260505065316 57 201 0.0 0.0 0.00 0.00 0.00 90 1014.5
20260505064813 57 201 0.0 0.0 0.00 0.00 0.00 90 1014.7
20260505064310 57 201 0.0 1.0 0.00 0.00 0.00 90 1014.9
20260505063808 57 201 0.0 0.0 0.00 0.00 0.00 90 1014.8
20260505063304 57 201 0.0 0.0 0.00 0.00 0.00 90 1014.9
20260505062800 57 201 0.0 1.0 0.00 0.00 0.00 90 1015.0
20260505062258 57 201 0.0 1.0 0.00 0.00 0.00 89 1015.0
20260505061754 57 209 0.0 0.0 0.00 0.00 0.00 89 1015.2
20260505061253 57 210 0.0 1.0 0.00 0.00 0.00 89 1015.2
20260505060750 57 191 0.0 0.0 0.00 0.00 0.00 89 1015.3
20260505060247 57 203 0.0 0.0 0.00 0.00 0.00 89 1015.2
20260505055741 57 199 0.0 1.0 0.00 0.00 0.00 89 1015.5
20260505055233 57 206 0.0 0.0 0.00 0.00 0.00 88 1015.5
20260505054730 57 209 0.0 1.0 0.00 0.00 0.00 88 1015.3
20260505054228 57 207 0.0 1.0 0.00 0.00 0.00 88 1015.3
20260505053726 57 197 0.0 1.0 0.00 0.00 0.00 87 1015.6
20260505053222 57 203 1.0 2.0 0.00 0.00 0.00 87 1015.7
20260505052720 57 203 0.0 1.0 0.00 0.00 0.00 87 1015.9
20260505052216 57 204 0.0 2.0 0.00 0.00 0.00 87 1015.8
20260505051713 57 201 0.0 2.0 0.00 0.00 0.00 86 1016.0
20260505051206 57 207 1.0 1.0 0.00 0.00 0.00 86 1015.9
20260505050703 57 203 0.0 0.0 0.00 0.00 0.00 86 1015.9
20260505050201 58 197 0.0 0.0 0.00 0.00 0.00 85 1015.8
20260505041631 58 198 0.0 0.0 0.00 0.00 0.00 83 1015.8
20260505041128 58 198 0.0 0.0 0.00 0.00 0.00 83 1016.2
20260505040625 58 198 0.0 0.0 0.00 0.00 0.00 83 1016.0
20260505040122 58 197 0.0 0.0 0.00 0.00 0.00 82 1015.9
20260505035618 59 197 0.0 0.0 0.00 0.00 0.00 82 1016.0
20260505035115 59 199 0.0 0.0 0.00 0.00 0.00 82 1015.9
20260505034612 59 198 0.0 0.0 0.00 0.00 0.00 81 1015.9
20260505034108 59 199 0.0 0.0 0.00 0.00 0.00 81 1016.0
20260505033604 59 199 0.0 0.0 0.00 0.00 0.00 81 1016.0
20260505033103 59 199 0.0 0.0 0.00 0.00 0.00 80 1015.9
20260505032600 59 199 0.0 0.0 0.00 0.00 0.00 80 1015.9
20260505032056 59 199 0.0 0.0 0.00 0.00 0.00 79 1016.1
20260505031554 60 199 0.0 0.0 0.00 0.00 0.00 79 1016.1
20260505031050 60 197 0.0 0.0 0.00 0.00 0.00 79 1016.0
20260505030548 60 199 0.0 0.0 0.00 0.00 0.00 78 1016.3
20260505030044 60 199 0.0 0.0 0.00 0.00 0.00 78 1016.1